sat.trackr.live / text

‹ back to catalog

KUIPER-00458

NORAD 68950 · 2026-098AH

PAYLOAD ACTIVE UNKNOWN

§ Identity

Operator
Country
US
Launch date
2026-04-30
Launch site
FRGUI
Launch vehicle
Mass (kg)
RCS (m²)

External: N2YO · Heavens-Above · Gunter

§ Orbital elements

Epoch: 2026-05-24T12:24:15.217056Z

Period
93.76 min
Inclination
51.8764°
Eccentricity
0.0003763
Mean motion
15.35913839 rev/d
Perigee alt
455.6 km
Apogee alt
460.8 km
Semi-major
6,836.3 km
B*
5.2853e-4
RAAN
181.6239°
Arg perigee
63.4698°
Mean anomaly
296.6674°
Rev number
371

§ Raw data

KUIPER-004581 68950U 26098AH  26144.51684279  .00018424  00000+0  52853-3 0  99962 68950  51.8764 181.6239 0003763  63.4698 296.6674 15.35913839  3714

JSON: /api/v1/satellites/68950 · /tle

For live sub-satellite position, see the globe view (requires WebGL).

§ Visibility from observer

Set your observer location to see the next 7 days of passes ≥ 10°. The values pass through the URL so the page stays shareable.

No JS? Fill the form by hand. The geolocation button needs JavaScript.